STARLINK-32114, 60287

Orbit data source: Space-Track

STARLINK-32114, 60287 is a payload satellite owned by SpaceX/Seattle (US) in LEO that was launched on Sun, 28 Jul 2024 UTC via an FALCON 9 launch vehicle from the Air Force Eastern Test Range (AFETR). Payload-class satellites include a variety of spacecraft equipped with specific instruments for various scientific and technological missions. These include communications satellites like Starlink; space stations such as the ISS; scientific satellites like the Hubble; Earth observation satellites from companies like Planet Labs, Umbra, and HawkEye 360; GPS; miniature CubeSats for education and research; and military/defense satellites.

Loading next visibility...
Identifier
60287, 2024-132K
Orbit
LEO
Last TLE update
19 hours ago
Origin
Manufacturer
SpaceX/Seattle
Mission
Operational spacecraft
Bus & Motor
STARLINK V2M, Unknown motor
Mass
730 kg wet, ~700 kg dry
Launch date (UTC)
2024-07-28 (11 months ago)
Launch vehicle
FALCON 9
Launch site
Air Force Eastern Test Range (AFETR)
Object type
Payload
Rocket body
Debris
Shape & HBR
Unknown
Radar Cross Section
Large (>1 m²)

Expand to show TLE details & history

TLE from 19 hours ago
0 STARLINK-32114
1 60287U 24132K   25181.62470707 -.00000124  00000-0  79467-5 0  9991
2 60287  53.1601 143.5626 0001351  88.3366 271.7789 15.30188615 52963
Epoch: 2025-06-30T14:59Z
TLE epoch observation values (Epoch: 2025-06-30T14:59:34.69Z)
Latitude
-0.00008°
Longitude
-0.26384°
Altitude
476.12 km
Speed
7.629 km/s
True Right ascension
09h 34m 15s
True Declination
0° 00' 00"
Sunlit
Object was in daylight at epoch
Visualization orbit readout
Latitude
-30.48769°
Longitude
-29.89008°
Altitude
485.172 km
Speed
7.622 km/s
Apparent Right ascension
08h 21m 12s
Apparent Declination
-35° 30' 14"
Sunlit
Object is in daylight
Visualization observer readout
Local Sidereal Time
21:16:18
Azimuth
72.288° E
Elevation
-78.259°
Doppler factor
1
Orbital elements
Apogee altitude
476.431 km
Perigee altitude
474.58 km
Semi-major axis
6,853.642 km
Eccentricity
0.00014
Inclination
53.1601°
RAAN
143.5626°
Arg. of periapsis
88.3366°
True anomaly
Unknown
Mean anomaly
271.7789°
Eccentric anomaly
Unknown
Mean motion
3.82526 °/min
Orbital period
94.11 mins
BSTAR
0.0000079467
Loading maneuver chart data...
Loading SW <> Apogee altitude chart data...
Loading historical data...
Loading historical data...
Loading historical data...
Loading historical data...
Loading historical data...
Loading historical data...
Loading historical data...

STARLINK-32114 Visibility forecast

Observer location: undefined°, undefined°

Span
Click to sort rows by Start time (UTC) header in descending order
Start Az.
Max El. time (UTC)
Max El. Az.
Max El.
End time (UTC)
End Az.
5 mins2025-07-02 00:06:59.326Z236.352° WSW2025-07-02 00:08:59.326Z1.785° NNE44.166°2025-07-02 00:11:59.326Z47.531° ENE
5 mins2025-07-02 05:02:59.326Z337.421° NNW2025-07-02 05:05:59.326Z31.703° NE16.671°2025-07-02 05:07:59.326Z65.094° ENE
5 mins2025-07-02 06:41:59.326Z312.637° NW2025-07-02 06:43:59.326Z86.877° E44.751°2025-07-02 06:46:59.326Z128.742° SE
|